Zurück zum Katalog

DELTA 1 DEB

AktivPO
NORAD 8539·DEBRIS·🇺🇸 United States

Gestartet Jul 23, 1972 von Vandenberg Space Force Base

Loading…

Nächste Überflüge (nächste 24 Stunden)

TLE

AktuellSource: Space-Track

Epoche: Sep 14, 2026, 10:42 UTC

1 08539U 72058GN  26257.44633638  .00000655  00000-0  25364-3 0  9995
2 08539  97.2608 259.8052 0199642  33.0854 328.2633 14.22156052767278

Verfolge DELTA 1 DEB in Echtzeit mit AllMySat

Download on the App Store